星链-30525 (STARLINK-30525 )

导读

STARLINK-30525是美国SpaceX公司星链(Starlink)星座中的低轨通信卫星,于2023年10月5日发射入轨,属于星链第二代组网卫星。它运行在500公里左右近地轨道,配备先进相控阵天线与激光星间链路,依托氪离子推进器可实现轨道机动与自主避碰。作为全球大规模卫星互联网组网的组成部分,它可为偏远地区、移动载体提供高速低延迟宽带接入,助力星链全球覆盖能力构建,设计寿命约5-7年,退役后会主动离轨在大气层烧毁,减少空间碎片。

Basic Information
目录编号:
58012
目录名称:
STARLINK-30525
国际标识:
2023-153X
轨道中心:
EARTH
卫星名称:
星链-30525
卫星全名:
星链-30525 (STARLINK-30525 )
卫星状态:
在轨 (已飞行1072 天)
发射日期:
2023-10-05 UTC
国别 :
美国 (US)
星等 :
--
This satellite is enrolled in the Space Conjunction Data Service (SCDS) and the current flight risk assessment level is: High Risk
Orbit Information
数据来源 国际轨道数据
星历时间: 2026-09-11T07:08:15+0800
16小时前
查看轨道信息
半长轴: 6861.192km
偏心率: 0.0001317
轨道倾角: 43.004°
近地点辐角 276.283°
升交点赤经 100.539°
平近点角 83.787°
近地点: 482.151km
远地点: 483.959km
周期: 94.267分钟
每日圈数: 15.275781
Detailed Information
固有亮度:
5
最大亮度:
0.3
卫星平台:
Starlink v2.0 mini
覆盖范围:
全球
运营商:
太空探索技术公司
运营商所在国:
美国
制造商(研发单位):
太空探索技术公司
制造商所在国:
美国
使用方式:
暂无
Satellite Introduction
星链(Starlink)计划是由太空探索技术公司(SpaceX)提出的一个巨型低轨卫星互联网星座项目,计划在2019年至2024年间在太空搭建由约1.2万颗卫星组成的“星链”网络,其中1584颗将部署在地球上空550千米处的近地轨道,并从2020年开始工作。该卫星仍在工作。
2D Orbit Map
3D Orbit Map
Orbit Altitude Analysis Chart
Orbit Inclination Analysis Chart
Orbit Comprehensive Analysis Chart
View Comprehensive Chart
Conjunction Data List
Event ID Objects TCA Miss Dist (km) Collision Risk Probability Collision Risk Index (CRI) Action
CDM_260912-235505-801206-648421
2026-09-12T
23:55:32+0000
0.534 km
远距离
1.335869E-4 高风险 0.78
CDM_260913-030105-801206-192821
2026-09-13T
03:01:28+0000
0.633 km
远距离
8.763177E-5 中风险 0.74
CDM_260913-193005-801206-192821
2026-09-13T
19:30:04+0000
1.407 km
极远距离
6.314699E-6 低风险 0.51
CDM_260913-114105-801206-648421
2026-09-13T
11:41:40+0000
1.397 km
极远距离
6.245664E-6 低风险 0.51
CDM_260904-201505-801206-581221
2026-09-04T
20:15:35+0000
1.514 km
极远距离
4.176792E-6 低风险 0.47
CDM_260913-131505-801206-648421
2026-09-13T
13:15:49+0000
1.964 km
极远距离
2.256072E-6 低风险 0.42
CDM_260913-043505-801206-192821
2026-09-13T
04:35:37+0000
1.995 km
极远距离
2.240447E-6 低风险 0.42
CDM_260912-222105-801206-648421
2026-09-12T
22:21:22+0000
2.118 km
极远距离
1.88128E-6 低风险 0.4
CDM_260913-012705-801206-192821
2026-09-13T
01:27:18+0000
2.359 km
极远距离
1.542867E-6 低风险 0.39
CDM_260913-175505-801206-192821
2026-09-13T
17:55:54+0000
2.508 km
极远距离
1.378963E-6 低风险 0.38
Miss Distance Evolution Trend with All Objects
Collision Probability Evolution Trend with All Objects